Location: Diamond Heights Village
(37.7458°N, 122.4416°W)
Time: 15:53:11
(UTC+00:00)

Cosmos 1602 Rocket - Pass Details

Date: 13 June 2024
Orbit: 599 x 630 km, 82.5° (Epoch: 23 July)

Event Time Altitude Azimuth Distance (km) Brightness Sun altitude
Rises 12:13:44 0° 183° (S) 2,899 6.6 -6.4°
Reaches altitude 10° 12:15:57 10° 182° (S) 1,999 5.8 -6.0°
Maximum altitude 12:20:23 80° 96° (E) 644 3.8 -5.3°
Drops below altitude 10° 12:24:52 10° 9° (N) 2,017 6.9 -4.6°
Sets 12:27:07 0° 9° (N) 2,928 7.7 -4.2°
